Location: Usti nad Labem
(50.6670°N, 14.0330°E)
Time: 09:12:17
(UTC+01:00)

N. Korean satellite - Visible Passes

Search period start: 01 December 2020 00:00
Search period end: 11 December 2020 00:00
Orbit: 453 x 504 km, 97.2° (Epoch: 30 November)

Date Brightness Start Highest point End Pass type
(mag) Time Alt. Az. Time Alt. Az. Time Alt. Az.
01 Dec 8.4 05:07:25 10° NNE 05:10:42 32° E 05:14:00 10° SSE visible
01 Dec 7.7 06:41:00 10° NNW 06:43:55 24° WNW 06:46:52 10° WSW visible
01 Dec 8.9 17:20:41 10° SSW 17:23:38 26° W 17:26:37 10° NW visible
02 Dec 9.5 04:41:43 10° NE 04:44:12 17° E 04:46:41 10° SE visible
02 Dec 6.9 06:14:17 10° N 06:17:44 43° WNW 06:21:13 10° SW visible
02 Dec 7.4 16:53:49 10° S 16:57:11 54° W 17:00:37 10° NNW visible
03 Dec 6.5 05:47:49 10° NNE 05:51:28 87° WNW 05:55:08 10° SSW visible
04 Dec 7.7 05:21:34 10° NNE 05:25:05 46° E 05:28:38 10° S visible
04 Dec 8.1 06:55:39 10° NNW 06:58:08 18° WNW 07:00:38 10° WSW visible
04 Dec 9.5 17:35:30 10° SW 17:38:02 19° W 17:40:36 10° NW visible
05 Dec 9.0 04:55:35 10° NE 04:58:37 24° E 05:01:39 10° SSE visible
05 Dec 7.3 06:28:44 10° N 06:31:59 31° WNW 06:35:14 10° SW visible
05 Dec 8.3 17:08:17 10° SSW 17:11:30 36° W 17:14:46 10° NNW visible
06 Dec 9.9 04:30:12 10° ENE 04:32:02 13° E 04:33:52 10° ESE visible
06 Dec 6.6 06:02:08 10° N 06:05:43 59° WNW 06:09:21 10° SSW visible
06 Dec 6.7 16:41:37 10° S 16:45:03 76° WSW 16:48:35 10° NNW visible
07 Dec 6.9 05:35:43 10° NNE 05:39:23 69° ESE 05:43:02 10° S visible
07 Dec 8.4 07:10:26 10° NNW 07:12:14 13° WNW 07:14:02 10° W visible
07 Dec 9.8 17:50:34 10° WSW 17:52:23 14° W 17:54:13 10° WNW visible
08 Dec 8.3 05:09:32 10° NNE 05:12:55 34° E 05:16:19 10° SSE visible
08 Dec 7.8 06:43:11 10° NNW 06:46:06 23° WNW 06:49:02 10° WSW visible
08 Dec 9.0 17:22:50 10° SSW 17:25:45 25° W 17:28:46 10° NW visible
09 Dec 9.4 04:43:43 10° NE 04:46:22 19° E 04:49:01 10° SE visible
09 Dec 7.0 06:16:24 10° N 06:19:52 41° WNW 06:23:21 10° SW visible
09 Dec 7.5 16:55:51 10° S 16:59:14 50° W 17:02:42 10° NNW visible
10 Dec 6.5 05:49:51 10° NNE 05:53:33 82° WNW 05:57:15 10° SSW visible
